This demonstration page uses our WeatherBlox Daily Observations layout. Learn more.

Left ArrowRight Arrow

Hourly Observations for March 23, 2020

Temp ( °F °C ) Dew Point ( °F °C ) Humidity (%) Winds ( mph kmh ) Pressure ( in mb ) Visibility ( mi km ) Precip ( " mm )
12:53 am 00:53 Clear 48 8.9 41 5 77 77 Calm 29.93 1014 10 16 0.00 0.00
1:53 am 01:53 Clear 46 7.8 40 4.4 79 79 Calm 29.92 1013 10 16 0.00 0.00
2:53 am 02:53 Clear 46 7.8 40 4.4 79 79 Calm 29.91 1013 10 16 0.00 0.00
3:53 am 03:53 Clear 45 7.2 40 4.4 83 83 Calm 29.90 1013 10 16 0.00 0.00
4:53 am 04:53 Clear 44 6.7 40 4.4 85 85 Calm 29.90 1013 10 16 0.00 0.00
5:53 am 05:53 Clear 43 6.1 40 4.4 89 89 Calm 29.91 1013 10 16 0.00 0.00
6:53 am 06:53 Cloudy 44 6.7 40 4.4 85 85 Calm 29.93 1014 10 16 0.00 0.00
7:53 am 07:53 Cloudy 45 7.2 41 5 86 86 N 3 6 29.95 1014 10 16 0.00 0.00
8:53 am 08:53 Sunny 47 8.3 42 5.6 83 83 N 3 6 29.97 1015 10 16 0.00 0.00
9:53 am 09:53 Mostly Sunny 53 11.7 43 6.1 69 69 VRB 7 11 29.99 1016 10 16 0.00 0.00
10:53 am 10:53 Sunny 57 13.9 46 7.8 67 67 S 17 28 29.98 1015 10 16 0.00 0.00
11:19 am 11:19 Mostly Cloudy 57 13.9 46 7.8 67 67 S 20 31 29.99 1016 10 16 0.00 0.00
11:53 am 11:53 Cloudy 58 14.4 46 7.8 65 65 S 14 22 29.97 1015 10 16 0.00 0.00
12:53 pm 12:53 Cloudy 59 15 47 8.3 64 64 SW 14 22 29.97 1015 10 16 0.00 0.00
1:53 pm 13:53 Mostly Cloudy 62 16.7 47 8.3 58 58 S 18 30 29.95 1014 10 16 0.00 0.00
2:53 pm 14:53 Mostly Cloudy 64 17.8 47 8.3 54 54 S 22 35 29.93 1014 10 16 0.00 0.00
3:53 pm 15:53 Cloudy with Nearby Thunderstorms 61 16.1 48 8.9 63 63 SSE 17 28 29.91 1013 7 11 0.01 0.25
4:07 pm 16:07 Cloudy with Light Rain 60 15.6 48 8.9 65 65 WNW 14 22 29.92 1013 5 8 0.02 0.51
4:16 pm 16:16 Cloudy with Strong Thunderstorms 54 12.2 46 7.8 75 75 WSW 13 20 29.94 1014 10 16 0.19 4.83
4:23 pm 16:23 Cloudy with Strong Thunderstorms 52 11.1 46 7.8 80 80 S 6 9 29.94 1014 10 16 0.40 10.16
4:44 pm 16:44 Cloudy with Strong Thunderstorms 53 11.7 48 8.9 83 83 WSW 8 13 29.92 1013 10 16 0.84 21.34
4:48 pm 16:48 Cloudy with Nearby Thunderstorms 54 12 48 9 82 82 W 13 20 29.92 1013 1 2 0.88 22.35
4:53 pm 16:53 Cloudy with Nearby Thunderstorms 54 12.2 46 7.8 75 75 NNW 6 9 29.91 1013 4 6 0.97 24.64
5:05 pm 17:05 Cloudy with Strong Thunderstorms 56 13.3 47 8.3 72 72 VRB 6 9 29.91 1013 7 11 0.21 5.33
5:32 pm 17:32 Cloudy with Light Rain 58 14.4 47 8.3 67 67 SSW 8 13 29.92 1013 7 11 0.32 8.13
5:53 pm 17:53 Cloudy with Light Rain 58 14.4 47 8.3 67 67 SE 13 20 29.90 1013 7 11 0.33 8.38
6:00 pm 18:00 Mostly Cloudy with Light Rain 59 15 47 8.3 64 64 SSE 21 33 29.90 1012 10 16 0.00 0.00
6:53 pm 18:53 Partly Cloudy 58 14.4 38 3.3 48 48 SSW 8 13 29.92 1013 10 16 0.00 0.00
7:53 pm 19:53 Cloudy 56 13.3 36 2.2 47 47 SSW 9 15 29.95 1014 10 16 0.00 0.00
8:53 pm 20:53 Mostly Cloudy 53 11.7 35 1.7 51 51 SW 8 13 29.99 1016 10 16 0.00 0.00
9:53 pm 21:53 Cloudy 53 11.7 36 2.2 52 52 S 10 17 30.02 1017 10 16 0.00 0.00
10:53 pm 22:53 Cloudy 52 11.1 34 1.1 50 50 S 10 17 30.04 1017 10 16 0.00 0.00
11:53 pm 23:53 Cloudy 52 11.1 40 4.4 64 64 S 17 28 30.05 1018 10 16 0.00 0.00

Powered by AerisWeather